Location: Amherst
(42.5000°N, 72.5000°W)
Time: 14:46:08

ISS - Pass Details

Date: 18 March 2018
Orbit: 403 x 406 km, 51.6° (Epoch: 21 March)

Event Time Altitude Azimuth Distance (km) Brightness Sun altitude
Exits shadow 06:16:18 10° 285° (WNW) 1,467 -1.6 -8.3°
Reaches altitude 10° 06:16:19 10° 284° (WNW) 1,462 -1.6 -8.3°
Maximum altitude 06:19:11 28° 224° (SW) 790 -2.8 -7.8°
Drops below altitude 10° 06:22:02 10° 162° (SSE) 1,452 -0.9 -7.2°
Sets 06:24:16 0° 151° (SSE) 2,307 0.4 -6.8°
